COSMOS 2251 DEB, 47068

Orbit data source: Space-Track

COSMOS 2251 DEB, 47068 is space debris in LEO originally from a launch on Wed, 16 Jun 1993 UTC launched from the Plesetsk Missile And Space Complex (PKMTR). The debris from Iridium 33, an American commercial communications satellite, has been tracked extensively since its accidental collision with the defunct Russian satellite Cosmos 2251 in 2009. This event, occurring at high speed in low Earth orbit (LEO), generated thousands of pieces of space debris, significantly increasing the risk of further collisions. The Iridium 33 debris cloud has impacted space traffic management and orbital debris mitigation strategies, making it a subject of ongoing study in space situational awareness.

Loading next visibility...
Identifier
47068, 1993-036BXY
Orbit
LEO
Country
Flag of CISCIS
Related business
Manufacturer
Unknown
Mission
Spacecraft
Bus & Motor
Unknown
Mass
Unknown
Launch date (UTC)
1993-06-16 (33 years ago)
Launch vehicle
Unknown
Launch site
Plesetsk Missile And Space Complex (PKMTR)
Object type
Payload
Rocket body
Debris
Shape & HBR
Unknown shape, 0.1 m
Radar Cross Section
Small (<0.1 m²)

Expand to show TLE details & history
Last TLE update: 1 day ago

TLE from 1 day ago
0 COSMOS 2251 DEB
1 47068U 93036BXY 26121.18674952  .00003753  00000-0  88914-3 0  9991
2 47068  74.0230 299.8273 0017105 357.9021   2.2066 14.54302352637836
Epoch: 2026-05-01T04:28Z
TLE epoch observation values (Epoch: 2026-05-01T04:28:55.158Z)
Latitude
-0.00009°
Longitude
13.47484°
Altitude
702.144 km
Speed
7.511 km/s
True Right ascension
19h 59m 18s
True Declination
0° 00' 00"
Sunlit
Object was in daylight at epoch
Visualization orbit readout
Latitude
Unknown
Longitude
Unknown
Altitude
Unknown
Speed
Unknown
Apparent Right ascension
Unknown
Apparent Declination
Unknown
Sunlit
N/A
Visualization observer readout
Local Sidereal Time
19:50:12
Azimuth
Unknown
Elevation
Unknown
Doppler factor
Unknown
Orbital elements
Apogee altitude
721.359 km
Perigee altitude
697.113 km
Semi-major axis
7,087.373 km
Eccentricity
0.00171
Inclination
74.023°
RAAN
299.8273°
Arg. of periapsis
357.9021°
True anomaly
2.21416°
Mean anomaly
2.2066°
Eccentric anomaly
2.21038°
Mean motion
3.6376 °/min
Orbital period
98.97 mins
BSTAR
0.00088914
Loading maneuver chart data...
Computing Atmospheric mass density...
Loading historical data...
Loading historical data...
Loading historical data...
Loading historical data...
Loading historical data...
Loading historical data...
Loading historical data...

Documentation

Showing up to 5 results
|